Location: Tierra del Sol
(32.6128°N, 116.3319°W)
Time: 03:18:32
(UTC-07:00)

Amateur Radio Satellites - All Passes

Search period start: 23 May 2015 02:48
Search period end: 24 May 2015 02:48
Location: Tierra del Sol, 32.6128°N, 116.3319°W

Satellite Date Start Highest point End Downlink Frequencies (MHz)
Time Altitude Azimuth
ITUPSAT 1 23 May 02:52:20 02:55:41 18° 267° (W) 02:58:50 437.325
BEESAT 23 May 03:04:01 03:06:27 13° 268° (W) 03:08:36 436.000
GONETS M04 23 May 03:04:54 03:10:18 17° 277° (W) 03:15:06
SO-50 23 May 03:11:10 03:14:43 23° 111° (ESE) 03:18:29 436.795
AO-7 23 May 03:28:00 03:33:25 20° 93° (E) 03:39:18 29.400- 29.500
BEESAT 3 23 May 03:28:38 03:31:05 16° 51° (NE) 03:33:40 437.485
Oscar 19 23 May 03:29:08 03:32:37 18° 292° (WNW) 03:35:53 437.125/150
HORYU 2 23 May 03:29:22 03:32:00 16° 93° (E) 03:34:51 437.375
ITAMSAT 1 23 May 03:31:48 03:36:57 60° 286° (WNW) 03:42:05 435.822/435.867
Cosmos 2499 23 May 03:37:32 03:44:22 54° 268° (W) 03:51:16 435.465 / 435.565
MOZHAYETS 4 23 May 03:39:09 03:41:52 16° 70° (ENE) 03:44:46
Gurwin Techsat 1B 23 May 03:43:39 03:48:46 50° 287° (WNW) 03:53:52 435.225
STARS 23 May 03:56:12 04:00:08 30° 263° (W) 04:04:04 437.465
PHONESAT 2.4 23 May 03:57:05 04:00:23 42° 148° (SSE) 04:03:41 2401.200-2431.200
O/OREOS (USA 219) 23 May 04:08:11 04:09:55 12° 260° (W) 04:11:23 437.305
BEESAT 2 23 May 04:10:21 04:14:08 35° 57° (ENE) 04:17:52 435.950
JAS-2 23 May 04:13:27 04:18:24 46° 99° (E) 04:23:31 435.910
KKS-1 23 May 04:21:07 04:21:53 10° 270° (W) 04:22:16 437.445
VERMONT LUNAR 23 May 04:21:48 04:24:46 34° 342° (NNW) 04:27:44 437.305
SO-50 23 May 04:50:55 04:55:06 31° 306° (NW) 04:59:22 436.795
HORYU 2 23 May 05:04:45 05:08:48 35° 287° (WNW) 05:12:46 437.375
BEESAT 3 23 May 05:05:30 05:09:15 36° 246° (WSW) 05:12:55 437.485
CUBESAT XI-V 23 May 05:08:10 05:08:22 10° 67° (ENE) 05:08:53 437.345
AIST 2 23 May 05:09:53 05:13:55 44° 58° (ENE) 05:17:54 435.215
MOZHAYETS 4 23 May 05:14:31 05:18:49 39° 262° (W) 05:23:05
AO-7 23 May 05:18:37 05:26:57 73° 289° (WNW) 05:35:16 29.400- 29.500
PHONESAT 2.4 23 May 05:35:18 05:38:32 36° 342° (NNW) 05:41:48 2401.200-2431.200
BEESAT 2 23 May 05:49:35 05:51:56 15° 250° (WSW) 05:54:06 435.950
AUBIESAT-1 23 May 05:56:06 05:57:02 11° 66° (ENE) 05:58:13 437.475
JAS-2 23 May 06:00:07 06:03:16 16° 292° (WNW) 06:06:12 435.910
VERMONT LUNAR 23 May 06:00:08 06:02:31 19° 359° (N) 06:04:55 437.305
STRAND 1 23 May 06:15:37 06:19:48 27° 71° (ENE) 06:24:07 437.568
CUBESAT XI-V 23 May 06:40:48 06:45:20 63° 259° (W) 06:49:55 437.345
PRISM 23 May 06:42:45 06:46:47 60° 75° (ENE) 06:50:48 437.425
Cosmos 2491 23 May 06:49:13 06:57:46 53° 79° (ENE) 07:06:19 435.465 / 435.565
AIST 2 23 May 06:50:23 06:52:07 12° 251° (WSW) 06:53:37 435.215
CUTE-I 23 May 06:51:45 06:57:04 61° 101° (E) 07:02:22 437.470
Cubesat XI-IV 23 May 07:10:58 07:16:22 85° 284° (WNW) 07:21:45 437.490
PHONESAT 2.4 23 May 07:14:30 07:17:14 21° 359° (N) 07:19:58 2401.200-2431.200
M-CUBED/EXP-1 PRIME 23 May 07:14:44 07:19:14 69° 254° (WSW) 07:23:24 437.505
AO-7 23 May 07:14:57 07:18:34 13° 305° (NW) 07:21:37 29.400- 29.500
AUBIESAT-1 23 May 07:27:09 07:31:31 56° 254° (WSW) 07:35:36 437.475
YUBILEINY 23 May 07:36:15 07:44:42 56° 91° (E) 07:53:12 435.215
VERMONT LUNAR 23 May 07:37:27 07:40:18 29° 16° (NNE) 07:43:11 437.305
ISS 23 May 07:44:08 07:47:04 30° 38° (NE) 07:50:00 145.825
RS-15 23 May 07:52:24 07:59:33 22° 104° (ESE) 08:07:25 29.354- 29.394
STRAND 1 23 May 07:54:37 07:58:57 27° 264° (W) 08:03:13 437.568
AIST 1 23 May 08:20:10 08:24:30 60° 82° (E) 08:28:50
HO-68 23 May 08:28:54 08:34:34 26° 95° (E) 08:40:27 435.675
CUTE-I 23 May 08:33:49 08:36:42 14° 294° (WNW) 08:39:16 437.470
SEEDS 23 May 08:38:30 08:40:57 16° 93° (E) 08:43:35 437.485
Cosmos 2491 23 May 08:47:02 08:54:14 28° 274° (W) 09:01:04 435.465 / 435.565
PHONESAT 2.4 23 May 08:52:46 08:55:56 33° 16° (NNE) 08:59:07 2401.200-2431.200
BRITE-PL 23 May 08:53:49 08:59:32 88° 287° (WNW) 09:04:59 437.365/2234.400
COMPASS 1 23 May 08:57:57 09:01:06 21° 95° (E) 09:04:21 437.405
DOVE 4 23 May 09:01:33 09:06:27 43° 97° (E) 09:11:06 437.250
CINEMA 3 23 May 09:11:03 09:14:49 24° 94° (E) 09:18:32 145.822/145.860
AAUSAT CUBESAT 2 23 May 09:13:24 09:16:58 28° 96° (E) 09:20:33 437.432
VERMONT LUNAR 23 May 09:14:29 09:17:38 54° 211° (SSW) 09:20:46 437.305
GOMX 1 23 May 09:17:58 09:23:24 79° 284° (WNW) 09:28:32 467.674
ISS 23 May 09:21:01 09:23:20 18° 232° (SW) 09:25:34 145.825
TIGRISAT 23 May 09:21:43 09:21:55 10° 67° (ENE) 09:22:25 435.000
YUBILEINY 23 May 09:34:47 09:42:01 27° 289° (WNW) 09:48:56 435.215
Cosmos 2504 23 May 09:35:18 09:42:20 31° 89° (E) 09:49:17 435.465 / 435.565
Oscar 11 23 May 09:36:20 09:39:44 23° 95° (E) 09:43:13 145.826/435.025
UNISAT 6 23 May 09:37:27 09:40:21 17° 70° (ENE) 09:43:26 437.425
CANX-2 23 May 09:39:22 09:43:31 59° 284° (WNW) 09:47:38 2200.000
CUTE 1.7 + AOD 2 23 May 09:43:35 09:47:44 59° 284° (WNW) 09:51:51 437.475
UWE-3 23 May 09:50:16 09:53:48 24° 95° (E) 09:57:18 435.000/436.395/437.385
PCSat 23 May 09:51:08 09:52:20 11° 46° (NE) 09:53:51 145.827
RS-15 23 May 10:00:01 10:10:56 78° 300° (WNW) 10:22:03 29.354- 29.394
DELFI C3 23 May 10:08:16 10:12:03 40° 98° (E) 10:15:50 145.870
FUNcube-1 23 May 10:11:16 10:15:07 32° 96° (E) 10:18:56 145.935
SEEDS 23 May 10:13:08 10:16:52 31° 286° (WNW) 10:20:31 437.485
HO-68 23 May 10:15:43 10:22:33 48° 290° (WNW) 10:29:18 435.675
ANTELSAT 23 May 10:18:51 10:23:22 49° 75° (ENE) 10:27:55 437.575/2403.000
POLYITAN 1 23 May 10:28:35 10:32:07 26° 72° (ENE) 10:35:43 437.675
QB50P1 23 May 10:28:58 10:32:27 25° 72° (ENE) 10:36:01 145.935-145.965
CUBEBUG 2 23 May 10:29:52 10:34:22 84° 283° (WNW) 10:38:41 437.445
PHONESAT 2.4 23 May 10:30:47 10:34:10 53° 211° (SSW) 10:37:33 2401.200-2431.200
BUGSAT 1 23 May 10:32:32 10:35:13 18° 70° (ENE) 10:38:05 437.445
COMPASS 1 23 May 10:33:26 10:36:44 23° 288° (WNW) 10:39:56 437.405
DOVE 4 23 May 10:40:22 10:43:49 18° 292° (WNW) 10:46:59 437.250
CINEMA 3 23 May 10:47:59 10:51:58 26° 289° (WNW) 10:55:43 145.822/145.860
AAUSAT CUBESAT 2 23 May 10:49:35 10:52:24 17° 289° (WNW) 10:55:04 437.432
ZACube-1 23 May 10:49:39 10:54:00 80° 283° (WNW) 10:58:13 437.345
ESTCUBE 1 23 May 10:50:19 10:51:15 11° 90° (E) 10:52:30 437.505/2401.250
TIGRISAT 23 May 10:53:29 10:58:09 68° 258° (WSW) 11:02:51 435.000
UKube-1 23 May 11:00:05 11:04:21 54° 100° (E) 11:08:37 .
NANOSAT C BR1 23 May 11:01:04 11:05:16 64° 77° (ENE) 11:09:32 145.865
VELOX 1 23 May 11:01:15 11:05:02 27° 96° (E) 11:08:53 145.980
DX 1 23 May 11:02:39 11:07:02 64° 101° (ESE) 11:11:22 434.975-435.025
QB50P2 23 May 11:05:56 11:10:11 77° 78° (ENE) 11:14:30 145.880/145.840
CUBEBUG 1 23 May 11:12:02 11:14:57 18° 93° (E) 11:18:01 437.445
Oscar 11 23 May 11:12:25 11:15:50 23° 288° (WNW) 11:19:09 145.826/435.025
UNISAT 6 23 May 11:12:25 11:16:51 40° 262° (W) 11:21:15 437.425
HUMSAT D 23 May 11:17:19 11:21:31 86° 277° (W) 11:25:37 437.325/437.525
POPSAT HIP 1 23 May 11:19:17 11:23:32 75° 258° (WSW) 11:27:50 437.405
DUCHIFAT 1 23 May 11:24:41 11:28:53 65° 259° (W) 11:33:08 145.980
UWE-3 23 May 11:26:45 11:30:14 23° 289° (WNW) 11:33:33 435.000/436.395/437.385
Cosmos 2504 23 May 11:27:24 11:35:33 46° 282° (WNW) 11:43:09 435.465 / 435.565
JUGNU 23 May 11:27:46 11:31:09 16° 167° (SSE) 11:34:34 437.505
AISAT 23 May 11:30:50 11:35:19 66° 100° (E) 11:39:47 437.250
PCSat 23 May 11:31:12 11:36:39 86° 65° (ENE) 11:42:04 145.827
50 SAT 23 May 11:35:18 11:39:12 87° 101° (ESE) 11:43:03 437.505
DELFI C3 23 May 11:45:14 11:46:51 12° 290° (WNW) 11:48:15 145.870
FUNcube-1 23 May 11:48:21 11:51:13 17° 290° (WNW) 11:53:52 145.935
ANTELSAT 23 May 11:58:10 12:00:27 13° 269° (W) 12:02:27 437.575/2403.000
POLYITAN 1 23 May 12:04:43 12:07:59 21° 266° (W) 12:11:11 437.675
QB50P1 23 May 12:05:02 12:08:17 21° 265° (W) 12:11:27 145.935-145.965
CUSAT 1 23 May 12:05:32 12:09:07 16° 82° (E) 12:13:31 437.405
SPROUT 23 May 12:06:31 12:09:32 19° 94° (E) 12:12:41 437.525
BUGSAT 1 23 May 12:06:56 12:10:30 28° 264° (W) 12:14:05 437.445
GONETS M04 23 May 12:08:21 12:13:00 17° 83° (E) 12:18:18
RS-15 23 May 12:17:47 12:25:38 21° 326° (NW) 12:33:12 29.354- 29.394
ESTCUBE 1 23 May 12:24:05 12:28:30 53° 285° (WNW) 12:32:54 437.505/2401.250
VELOX 1 23 May 12:38:00 12:41:27 22° 289° (WNW) 12:44:47 145.980
SRMSAT 23 May 12:38:03 12:40:29 13° 165° (SSE) 12:43:01 437.500
UKube-1 23 May 12:38:50 12:40:04 11° 292° (WNW) 12:41:02 .
TISAT 1 23 May 12:44:54 12:48:54 39° 98° (E) 12:52:53 437.305
CUBEBUG 1 23 May 12:47:24 12:51:24 32° 287° (WNW) 12:55:19 437.445
DANDE 23 May 12:47:31 12:52:38 27° 85° (E) 12:58:58 436.750
Oscar 19 23 May 13:00:59 13:05:49 41° 73° (ENE) 13:10:42 437.125/150
ITAMSAT 1 23 May 13:09:09 13:11:17 13° 66° (ENE) 13:13:43 435.822/435.867
JUGNU 23 May 13:15:05 13:19:33 22° 176° (S) 13:24:01 437.505
ITUPSAT 1 23 May 13:20:04 13:22:13 13° 91° (E) 13:24:39 437.325
Gurwin Techsat 1B 23 May 13:22:26 13:25:40 17° 68° (ENE) 13:29:08 435.225
SO-50 23 May 13:26:02 13:30:59 69° 60° (ENE) 13:35:50 436.795
BEESAT 23 May 13:29:33 13:32:40 18° 93° (E) 13:35:59 436.000
SWISSCUBE 23 May 13:36:51 13:40:38 24° 95° (E) 13:44:32 437.505
SPROUT 23 May 13:41:54 13:45:39 28° 287° (WNW) 13:49:20 437.525
CUSAT 1 23 May 13:44:07 13:50:41 80° 279° (W) 13:58:45 437.405
GONETS M04 23 May 14:00:08 14:08:59 81° 277° (W) 14:17:52
Cosmos 2499 23 May 14:17:13 14:22:49 21° 87° (E) 14:28:35 435.465 / 435.565
TISAT 1 23 May 14:22:02 14:24:22 14° 291° (WNW) 14:26:30 437.305
JAS-2 23 May 14:22:58 14:26:18 15° 67° (ENE) 14:29:52 435.910
AO-7 23 May 14:23:09 14:28:25 20° 59° (ENE) 14:34:05 29.400- 29.500
SRMSAT 23 May 14:24:43 14:29:02 21° 173° (S) 14:33:24 437.500
DANDE 23 May 14:29:17 14:35:24 46° 286° (WNW) 14:42:58 436.750
KKS-1 23 May 14:37:33 14:40:06 15° 93° (E) 14:42:50 437.445
Oscar 19 23 May 14:41:40 14:45:21 19° 267° (W) 14:48:52 437.125/150
ITAMSAT 1 23 May 14:45:12 14:50:20 63° 259° (W) 14:55:27 435.822/435.867
ITUPSAT 1 23 May 14:55:49 15:00:26 49° 286° (WNW) 15:05:02 437.325
Gurwin Techsat 1B 23 May 15:00:10 15:05:18 49° 260° (W) 15:10:26 435.225
JUGNU 23 May 15:03:39 15:07:59 21° 186° (S) 15:12:17 437.505
BEESAT 23 May 15:06:17 15:10:40 36° 287° (WNW) 15:14:59 436.000
SO-50 23 May 15:09:59 15:11:02 10° 252° (WSW) 15:11:42 436.795
SWISSCUBE 23 May 15:14:24 15:18:28 28° 289° (WNW) 15:22:28 437.505
CUSAT 1 23 May 15:31:48 15:35:07 13° 301° (WNW) 15:38:00 437.405
STARS 23 May 15:49:52 15:54:17 69° 101° (ESE) 15:58:39 437.465
HORYU 2 23 May 15:57:53 16:02:21 68° 259° (WSW) 16:06:49 437.375
GONETS M04 23 May 16:03:41 16:07:31 12° 297° (WNW) 16:10:33
JAS-2 23 May 16:03:51 16:11:02 78° 258° (WSW) 16:17:23 435.910
Cosmos 2499 23 May 16:07:15 16:15:34 62° 279° (W) 16:23:16 435.465 / 435.565
AO-7 23 May 16:12:08 16:20:26 80° 255° (WSW) 16:28:47 29.400- 29.500
KKS-1 23 May 16:12:46 16:16:55 37° 287° (WNW) 16:21:00 437.445
SRMSAT 23 May 16:13:06 16:17:38 23° 183° (S) 16:22:11 437.500
O/OREOS (USA 219) 23 May 16:34:00 16:38:29 60° 291° (WNW) 16:42:57 437.305
Cubesat XI-IV 23 May 16:53:41 16:54:16 10° 65° (ENE) 16:55:15 437.490
JUGNU 23 May 16:53:44 16:56:23 13° 195° (SSW) 16:58:54 437.505
RS-15 23 May 16:55:28 17:03:44 23° 37° (NE) 17:12:44 29.354- 29.394
MOZHAYETS 4 23 May 17:13:46 17:18:20 69° 102° (ESE) 17:22:53
YUBILEINY 23 May 17:53:28 17:59:22 21° 68° (ENE) 18:05:42 435.215
BEESAT 2 23 May 18:00:30 18:03:27 20° 111° (ESE) 18:06:33 435.950
SRMSAT 23 May 18:02:38 18:06:13 16° 192° (SSW) 18:09:44 437.500
CUTE-I 23 May 18:09:08 18:14:21 64° 75° (ENE) 18:19:37 437.470
AO-7 23 May 18:11:56 18:14:34 11° 272° (W) 18:16:21 29.400- 29.500
Cubesat XI-IV 23 May 18:28:29 18:33:47 81° 256° (WSW) 18:39:08 437.490
PRISM 23 May 18:31:34 18:33:04 12° 92° (E) 18:34:49 437.425
STRAND 1 23 May 18:32:04 18:34:14 13° 91° (E) 18:36:45 437.568
CUBESAT XI-V 23 May 18:42:00 18:46:30 45° 99° (E) 18:51:00 437.345
BEESAT 3 23 May 18:53:29 18:57:31 69° 299° (WNW) 19:01:37 437.485
HO-68 23 May 18:56:15 18:58:41 12° 59° (ENE) 19:01:38 435.675
AIST 2 23 May 19:03:43 19:07:20 29° 112° (ESE) 19:11:04 435.215
RS-15 23 May 19:06:39 19:18:26 80° 61° (ENE) 19:30:40 29.354- 29.394
AUBIESAT-1 23 May 19:14:51 19:15:24 10° 97° (E) 19:16:09 437.475
BEESAT 2 23 May 19:37:50 19:41:23 27° 305° (NW) 19:44:56 435.950
Cosmos 2491 23 May 19:44:03 19:52:43 71° 93° (E) 20:01:31 435.465 / 435.565
YUBILEINY 23 May 19:48:25 19:57:02 69° 267° (W) 20:05:37 435.215
CUTE-I 23 May 19:52:50 19:54:57 12° 270° (W) 19:56:42 437.470
BRITE-PL 23 May 19:59:40 20:04:27 64° 75° (ENE) 20:09:40 437.365/2234.400
AAUSAT CUBESAT 2 23 May 20:02:01 20:03:18 12° 69° (ENE) 20:04:51 437.432
DOVE 4 23 May 20:02:25 20:06:35 28° 71° (ENE) 20:11:00 437.250
PRISM 23 May 20:04:50 20:08:45 40° 286° (WNW) 20:12:38 437.425
STRAND 1 23 May 20:08:49 20:13:52 57° 286° (WNW) 20:18:53 437.568
CINEMA 3 23 May 20:08:59 20:11:42 15° 68° (ENE) 20:14:41 145.822/145.860
GOMX 1 23 May 20:20:49 20:25:42 67° 75° (ENE) 20:30:57 467.674
CUBESAT XI-V 23 May 20:20:54 20:23:36 15° 291° (WNW) 20:26:05 437.345
CANX-2 23 May 20:27:32 20:31:42 52° 75° (ENE) 20:35:52 2200.000
Oscar 11 23 May 20:29:02 20:30:09 11° 69° (ENE) 20:31:32 145.826/435.025
CUTE 1.7 + AOD 2 23 May 20:31:40 20:35:49 52° 76° (ENE) 20:39:59 437.475
M-CUBED/EXP-1 PRIME 23 May 20:35:40 20:38:40 32° 290° (WNW) 20:41:39 437.505
HO-68 23 May 20:38:20 20:45:31 81° 74° (ENE) 20:52:44 435.675
AIST 2 23 May 20:42:37 20:45:57 21° 307° (NW) 20:49:13 435.215
UWE-3 23 May 20:44:11 20:46:21 14° 69° (ENE) 20:48:46 435.000/436.395/437.385
AIST 1 23 May 20:45:00 20:48:59 43° 93° (E) 20:53:03
AUBIESAT-1 23 May 20:47:30 20:50:20 26° 291° (WNW) 20:53:09 437.475
DELFI C3 23 May 20:52:49 20:54:53 14° 70° (ENE) 20:57:07 145.870
SEEDS 23 May 20:59:56 21:04:11 85° 258° (WSW) 21:08:25 437.485
FUNcube-1 23 May 21:03:22 21:06:11 17° 70° (ENE) 21:09:10 145.935
COMPASS 1 23 May 21:19:07 21:23:17 61° 260° (W) 21:27:26 437.405
RS-15 23 May 21:21:12 21:30:03 23° 255° (WSW) 21:38:20 29.354- 29.394
CUBEBUG 2 23 May 21:22:57 21:27:29 47° 74° (ENE) 21:32:05 437.445
Cosmos 2504 23 May 21:25:19 21:32:14 48° 79° (E) 21:39:09 435.465 / 435.565
AAUSAT CUBESAT 2 23 May 21:34:33 21:38:34 45° 261° (W) 21:42:35 437.432
DOVE 4 23 May 21:40:00 21:44:15 27° 266° (W) 21:48:35 437.250
ZACube-1 23 May 21:40:38 21:44:59 45° 75° (ENE) 21:49:24 437.345
BRITE-PL 23 May 21:42:16 21:43:39 11° 273° (W) 21:44:40 437.365/2234.400
CINEMA 3 23 May 21:43:44 21:48:28 50° 261° (W) 21:53:21 145.822/145.860
Cosmos 2491 23 May 21:44:09 21:50:31 20° 292° (WNW) 21:56:27 435.465 / 435.565
UKube-1 23 May 21:51:00 21:54:31 26° 72° (ENE) 21:58:08 .
DX 1 23 May 21:54:08 21:57:54 30° 72° (ENE) 22:01:45 434.975-435.025
VELOX 1 23 May 21:55:50 21:58:11 15° 69° (ENE) 22:00:45 145.980
Oscar 11 23 May 22:01:42 22:05:56 51° 260° (W) 22:10:11 145.826/435.025
GOMX 1 23 May 22:03:18 22:04:30 10° 273° (W) 22:05:19 467.674
HUMSAT D 23 May 22:04:30 22:08:27 36° 74° (ENE) 22:12:26 437.325/437.525
50 SAT 23 May 22:15:53 22:19:11 26° 73° (ENE) 22:22:33 437.505
ANTELSAT 23 May 22:17:22 22:19:27 14° 91° (E) 22:21:46 437.575/2403.000
UWE-3 23 May 22:17:57 22:22:29 50° 261° (W) 22:27:03 435.000/436.395/437.385
AISAT 23 May 22:24:25 22:28:20 33° 73° (ENE) 22:32:22 437.250
AIST 1 23 May 22:25:35 22:26:58 11° 289° (WNW) 22:28:05
DELFI C3 23 May 22:26:03 22:29:44 33° 263° (W) 22:33:24 145.870
HO-68 23 May 22:30:16 22:34:05 14° 270° (W) 22:37:21 435.675
FUNcube-1 23 May 22:37:56 22:42:14 38° 263° (W) 22:46:30 145.935
TIGRISAT 23 May 22:50:23 22:54:21 34° 97° (E) 22:58:16 435.000
NANOSAT C BR1 23 May 22:52:02 22:54:21 15° 92° (E) 22:56:52 145.865
QB50P2 23 May 22:56:56 22:59:47 18° 93° (E) 23:02:46 145.880/145.840
CUBEBUG 2 23 May 23:01:53 23:04:28 14° 269° (W) 23:06:47 437.445
UNISAT 6 23 May 23:08:57 23:13:18 61° 100° (E) 23:17:32 437.425
POPSAT HIP 1 23 May 23:09:37 23:13:06 25° 95° (E) 23:16:39 437.405
DUCHIFAT 1 23 May 23:14:23 23:18:00 27° 96° (E) 23:21:40 145.980
ESTCUBE 1 23 May 23:18:55 23:23:23 80° 77° (ENE) 23:27:52 437.505/2401.250
ZACube-1 23 May 23:19:14 23:21:37 13° 269° (W) 23:23:43 437.345
Cosmos 2504 23 May 23:19:46 23:25:14 23° 273° (W) 23:30:25 435.465 / 435.565
UKube-1 23 May 23:27:17 23:30:38 21° 265° (W) 23:33:52 .
VELOX 1 23 May 23:30:17 23:34:27 40° 262° (W) 23:38:37 145.980
DX 1 23 May 23:31:10 23:34:13 18° 266° (W) 23:37:07 434.975-435.025
TISAT 1 23 May 23:33:45 23:36:25 17° 70° (ENE) 23:39:15 437.305
DANDE 23 May 23:35:17 23:40:28 20° 63° (ENE) 23:45:21 436.750
CUBEBUG 1 23 May 23:38:27 23:42:45 69° 259° (W) 23:47:07 437.445
HUMSAT D 23 May 23:41:46 23:44:21 15° 268° (W) 23:46:43 437.325/437.525
50 SAT 23 May 23:51:04 23:53:54 18° 266° (W) 23:56:36 437.505
ANTELSAT 23 May 23:52:24 23:56:29 38° 287° (WNW) 00:00:28 437.575/2403.000
BUGSAT 1 23 May 23:52:57 23:57:09 56° 100° (E) 00:01:19 437.445
QB50P1 23 May 23:53:25 23:57:43 90° 286° (WNW) 00:01:59 145.935-145.965
POLYITAN 1 23 May 23:53:27 23:57:45 88° 283° (WNW) 00:02:01 437.675
AISAT 24 May 00:02:02 00:05:02 17° 267° (W) 00:07:53 437.250
GONETS M04 24 May 00:16:36 00:24:43 41° 76° (ENE) 00:32:52
ISS 24 May 00:19:42 00:22:54 67° 316° (NW) 00:26:09 145.825
NANOSAT C BR1 24 May 00:26:26 00:30:21 35° 286° (WNW) 00:34:12 145.865
PCSat 24 May 00:26:32 00:30:26 21° 107° (ESE) 00:34:33 145.827
TIGRISAT 24 May 00:28:02 00:30:51 16° 291° (WNW) 00:33:27 435.000
CUSAT 1 24 May 00:29:18 00:36:35 66° 78° (ENE) 00:42:12 437.405
SPROUT 24 May 00:30:45 00:35:02 67° 259° (W) 00:39:22 437.525
QB50P2 24 May 00:31:59 00:35:44 29° 287° (WNW) 00:39:24 145.880/145.840
BEESAT 24 May 00:33:04 00:35:05 13° 67° (ENE) 00:37:21 436.000
SWISSCUBE 24 May 00:39:58 00:42:56 17° 69° (ENE) 00:46:06 437.505
POPSAT HIP 1 24 May 00:45:33 00:48:52 21° 289° (WNW) 00:52:03 437.405
DUCHIFAT 1 24 May 00:50:33 00:53:40 19° 289° (WNW) 00:56:38 145.980
TISAT 1 24 May 01:08:11 01:11:59 31° 263° (W) 01:15:45 437.305
DANDE 24 May 01:16:56 01:24:46 67° 266° (W) 01:30:53 436.750
Oscar 19 24 May 01:17:54 01:21:39 21° 94° (E) 01:25:33 437.125/150
VERMONT LUNAR 24 May 01:49:42 01:52:17 23° 145° (SE) 01:54:55 437.305
ITUPSAT 1 24 May 01:57:51 02:02:36 72° 258° (WSW) 02:07:21 437.325
Cosmos 2499 24 May 02:04:24 02:10:33 32° 75° (ENE) 02:16:54 435.465 / 435.565
BEESAT 24 May 02:07:53 02:12:32 53° 260° (W) 02:17:11 436.000
PCSat 24 May 02:08:32 02:13:37 40° 301° (WNW) 02:18:42 145.827
GONETS M04 24 May 02:13:39 02:21:26 36° 272° (W) 02:28:58
CUSAT 1 24 May 02:14:12 02:18:12 16° 279° (W) 02:21:23 437.405
SWISSCUBE 24 May 02:16:05 02:20:32 39° 262° (W) 02:24:58 437.505
